TimeCST,TemperatureF,Dew PointF,Humidity,Sea Level PressureIn,VisibilityMPH,Wind Direction,Wind SpeedMPH,Gust SpeedMPH,PrecipitationIn,Events,Conditions,WindDirDegrees,DateUTC
12:53 AM,24.1,17.1,75,30.29,10.0,WSW,5.8,-,N/A,,Mostly Cloudy,240,2013-02-16 06:53:00
1:53 AM,28.9,18.0,64,30.30,10.0,West,8.1,-,N/A,,Mostly Cloudy,280,2013-02-16 07:53:00
2:27 AM,28.4,24.8,86,30.27,2.0,WNW,11.5,-,0.00,Snow,Light Snow,290,2013-02-16 08:27:00
2:35 AM,28.4,24.8,86,30.26,1.8,WNW,9.2,-,0.00,Snow,Light Snow,290,2013-02-16 08:35:00
2:53 AM,27.0,27.0,100,30.29,1.5,WNW,10.4,-,0.00,Snow,Light Snow,300,2013-02-16 08:53:00
3:10 AM,26.6,26.6,100,30.26,1.0,West,15.0,20.7,0.00,Snow,Light Snow,280,2013-02-16 09:10:00
3:23 AM,26.6,24.8,93,30.25,9.0,WNW,9.2,18.4,0.00,,Overcast,300,2013-02-16 09:23:00
3:30 AM,26.6,24.8,93,30.25,10.0,WNW,9.2,-,0.00,,Overcast,290,2013-02-16 09:30:00
3:53 AM,26.1,25.0,96,30.27,10.0,WNW,9.2,-,0.00,,Overcast,300,2013-02-16 09:53:00
4:53 AM,25.0,23.0,92,30.29,10.0,WNW,10.4,-,N/A,,Scattered Clouds,300,2013-02-16 10:53:00
5:46 AM,24.8,21.2,86,30.27,10.0,NW,13.8,19.6,N/A,,Mostly Cloudy,320,2013-02-16 11:46:00
5:53 AM,24.1,21.0,88,30.30,10.0,NW,13.8,-,N/A,,Mostly Cloudy,310,2013-02-16 11:53:00
6:53 AM,24.1,21.0,88,30.32,10.0,NNW,6.9,-,N/A,,Overcast,330,2013-02-16 12:53:00
7:15 AM,24.8,21.2,86,30.28,10.0,NNW,8.1,-,N/A,,Overcast,330,2013-02-16 13:15:00
7:53 AM,24.1,21.9,91,30.33,10.0,NW,6.9,-,N/A,,Mostly Cloudy,320,2013-02-16 13:53:00
8:53 AM,25.0,21.9,88,30.35,10.0,North,9.2,-,N/A,,Overcast,350,2013-02-16 14:53:00
9:34 AM,26.6,23.0,86,30.31,10.0,NNW,9.2,-,N/A,,Overcast,340,2013-02-16 15:34:00
9:53 AM,28.9,24.1,82,30.36,10.0,NNE,9.2,-,N/A,,Mostly Cloudy,20,2013-02-16 15:53:00
10:53 AM,30.0,21.9,72,30.36,10.0,Calm,Calm,-,N/A,,Scattered Clouds,0,2013-02-16 16:53:00
11:03 AM,30.2,21.2,69,30.32,10.0,WNW,6.9,-,N/A,,Mostly Cloudy,290,2013-02-16 17:03:00
11:43 AM,30.2,21.2,69,30.31,10.0,West,5.8,-,N/A,,Partly Cloudy,260,2013-02-16 17:43:00
11:53 AM,30.9,21.0,67,30.34,10.0,Calm,Calm,-,N/A,,Scattered Clouds,0,2013-02-16 17:53:00
12:53 PM,34.0,21.0,59,30.31,10.0,Variable,6.9,-,N/A,,Overcast,0,2013-02-16 18:53:00
1:53 PM,35.1,18.0,50,30.27,10.0,West,4.6,-,N/A,,Overcast,280,2013-02-16 19:53:00
2:53 PM,35.1,18.0,50,30.24,10.0,SSW,5.8,-,N/A,,Overcast,210,2013-02-16 20:53:00
3:53 PM,36.0,18.0,48,30.22,10.0,SW,6.9,-,N/A,,Overcast,220,2013-02-16 21:53:00
4:53 PM,35.1,17.1,48,30.20,10.0,South,8.1,-,N/A,,Overcast,190,2013-02-16 22:53:00
5:53 PM,35.1,18.0,50,30.20,10.0,SSW,6.9,-,N/A,,Overcast,210,2013-02-16 23:53:00
6:53 PM,33.1,17.1,52,30.20,10.0,Calm,Calm,-,N/A,,Mostly Cloudy,0,2013-02-17 00:53:00
7:53 PM,34.0,19.0,54,30.19,10.0,South,3.5,-,N/A,,Overcast,180,2013-02-17 01:53:00
8:53 PM,34.0,19.0,54,30.17,10.0,South,9.2,-,N/A,,Overcast,180,2013-02-17 02:53:00
9:53 PM,34.0,19.9,56,30.17,10.0,SSE,6.9,-,N/A,,Overcast,160,2013-02-17 03:53:00
10:53 PM,30.9,19.9,64,30.15,10.0,South,4.6,-,N/A,,Mostly Cloudy,170,2013-02-17 04:53:00
11:53 PM,30.0,21.0,69,30.14,10.0,SSE,4.6,-,N/A,,Mostly Cloudy,150,2013-02-17 05:53:00